This demonstration page uses our WeatherBlox Daily Observations layout. Learn more.

Left ArrowRight Arrow

39.29038, -76.61219

Hourly Observations for February 23, 2017

Temp ( °F °C ) Dew Point ( °F °C ) Humidity (%) Winds ( mph kmh ) Pressure ( in mb ) Visibility ( mi km ) Precip ( " mm )
12:54 am 00:54 undefined 50 10 44 6.7 80 80 undefined N/A 29.90 1013 N/A N/A
1:54 am 01:54 undefined 50 10 45 7.2 83 83 undefined N/A 29.90 1012 N/A N/A
2:54 am 02:54 undefined 50 10 46 7.8 86 86 undefined N/A 29.88 1012 N/A N/A
3:54 am 03:54 undefined 51 10.6 47 8.3 86 86 undefined N/A 29.87 1012 N/A N/A
4:54 am 04:54 undefined 51 10.6 46 7.8 83 83 undefined N/A 29.88 1012 N/A N/A
5:54 am 05:54 undefined 52 11.1 47 8.3 83 83 undefined N/A 29.89 1012 N/A N/A
6:54 am 06:54 undefined 50 10 46 7.8 86 86 undefined N/A 29.91 1013 N/A N/A
7:54 am 07:54 undefined 51 10.6 48 8.9 89 89 undefined N/A 29.91 1013 N/A N/A
8:54 am 08:54 undefined 54 12.2 49 9.4 83 83 undefined N/A 29.91 1013 N/A N/A
9:54 am 09:54 undefined 59 15 50 10 72 72 undefined N/A 29.90 1013 N/A N/A
10:54 am 10:54 undefined 63 17.2 51 10.6 65 65 undefined N/A 29.90 1013 N/A N/A
11:54 am 11:54 undefined 68 20 52 11.1 57 57 undefined N/A 29.87 1011 N/A N/A
12:54 pm 12:54 undefined 69 20.6 52 11.1 55 55 undefined N/A 29.84 1010 N/A N/A
1:54 pm 13:54 undefined 71 21.7 52 11.1 51 51 undefined N/A 29.81 1010 N/A N/A
2:54 pm 14:54 undefined 71 21.7 52 11.1 51 51 undefined N/A 29.80 1009 N/A N/A
3:54 pm 15:54 undefined 70 21.1 52 11.1 53 53 undefined N/A 29.81 1010 N/A N/A
4:54 pm 16:54 undefined 69 20.6 52 11.1 55 55 undefined N/A 29.82 1010 N/A N/A
5:54 pm 17:54 undefined 68 20 51 10.6 55 55 undefined N/A 29.84 1010 N/A N/A
6:54 pm 18:54 undefined 64 17.8 50 10 60 60 undefined N/A 29.85 1011 N/A N/A
7:54 pm 19:54 undefined 62 16.7 49 9.4 62 62 undefined N/A 29.87 1012 N/A N/A
8:54 pm 20:54 undefined 60 15.6 49 9.4 67 67 undefined N/A 29.88 1012 N/A N/A
9:54 pm 21:54 undefined 58 14.4 49 9.4 72 72 undefined N/A 29.88 1012 N/A N/A
10:54 pm 22:54 undefined 58 14.4 49 9.4 72 72 undefined N/A 29.90 1013 N/A N/A
11:54 pm 23:54 undefined 58 14.4 48 8.9 70 70 undefined N/A 29.90 1013 N/A N/A

Powered by AerisWeather